Retour au catalogue

STARLINK-5992

ActifCommunicationsSSO
NORAD 56328·PAYLOAD·🇺🇸 United States

Lancé Apr 27, 2023 depuis Vandenberg Space Force Base

Loading…

Prochains Passages (prochaines 24 heures)

TLE

FraisSource: CelesTrak SupGP

Époque: Sep 14, 2026, 21:35 UTC

1 56328C 23058M   26257.89979167  .00061002  00000+0  18937-2 0  2575
2 56328  97.2843 254.6881 0001657  87.5888 277.6472 15.33406565    10

Suivez STARLINK-5992 en temps réel avec AllMySat

Download on the App Store